Date,TemperatureHighF,TemperatureAvgF,TemperatureLowF,DewpointHighF,DewpointAvgF,DewpointLowF,HumidityHigh,HumidityAvg,HumidityLow,PressureMaxIn,PressureMinIn,WindSpeedMaxMPH,WindSpeedAvgMPH,GustSpeedMaxMPH,PrecipitationSumIn
2014-2-1,39,30,19,32,23,16,97,76,48,30.31,30.00,14,1,14,0.00
2014-2-2,41,36,30,39,35,31,100,97,90,30.00,29.81,10,1,10,0.17
2014-2-3,32,27,16,32,20,11,100,75,62,30.23,29.98,16,3,17,0.00
2014-2-4,31,20,9,16,13,8,93,72,48,30.38,30.22,14,2,14,0.00
2014-2-5,21,19,17,18,16,14,94,86,70,30.35,29.70,18,4,18,0.00
2014-2-6,21,12,2,16,8,0,92,83,62,30.18,29.84,15,2,15,0.03
2014-2-7,27,14,0,16,9,4,93,78,50,30.10,30.02,19,2,20,0.00
2014-2-8,28,15,1,11,8,4,92,70,45,30.14,30.02,20,3,20,0.00
2014-2-9,27,16,5,14,9,4,89,71,45,30.13,29.93,15,1,15,0.00
2014-2-10,24,17,7,18,12,4,92,77,55,30.08,29.86,17,3,17,0.00
2014-2-11,22,10,-3,11,2,-6,91,67,44,30.29,30.07,24,4,24,0.00
2014-2-12,28,9,-4,4,-1,-6,83,60,31,30.45,30.28,14,2,14,0.00
2014-2-13,34,22,2,35,20,0,100,89,76,30.38,29.20,22,4,26,0.02
2014-2-14,39,32,22,39,31,16,100,93,74,29.56,28.63,38,7,38,1.22
2014-2-15,34,25,12,28,22,14,96,86,68,29.88,29.38,22,3,22,0.00
2014-2-16,28,22,13,23,15,4,96,75,54,29.78,29.24,34,9,34,0.01
2014-2-17,24,15,2,8,4,0,75,57,42,30.25,29.77,31,7,31,0.00
2014-2-18,29,14,-8,29,10,-6,97,81,56,30.32,29.84,15,2,15,0.00
2014-2-19,37,29,19,33,27,18,99,93,74,30.03,29.67,18,2,18,0.17
2014-2-20,47,36,30,36,29,21,100,79,42,30.19,29.68,22,3,24,0.30
2014-2-21,44,35,30,44,34,28,100,94,81,30.20,29.60,24,3,24,0.75
2014-2-22,46,39,31,44,33,28,100,80,54,29.85,29.63,26,4,26,0.00
2014-2-23,42,35,24,32,28,21,91,77,61,29.90,29.69,10,1,10,0.00
2014-2-24,35,28,16,32,16,4,96,58,37,29.76,29.58,31,6,31,0.00
2014-2-25,23,16,7,8,4,0,78,56,42,29.84,29.73,21,5,22,0.00
2014-2-26,25,14,-2,16,8,-6,90,74,50,29.84,29.66,16,2,16,0.00
2014-2-27,24,10,-3,18,5,-6,91,76,47,29.77,29.58,13,1,13,0.00
2014-2-28,22,13,2,11,1,-6,92,58,30,30.38,29.64,26,5,26,0.00